Zurück zum Katalog

THOR ABLESTAR DEB

AktivLEO
NORAD 5748·DEBRIS·🇺🇸 United States

Gestartet Jun 29, 1961 von Cape Canaveral Space Force Station

Loading…

Nächste Überflüge (nächste 24 Stunden)

TLE

AktuellSource: Space-Track

Epoche: Sep 14, 2026, 09:00 UTC

1 05748U 61015JX  26257.37512238  .00000677  00000-0  83171-3 0  9993
2 05748  67.5539 238.5162 0113859 336.7625 175.1003 13.68344838166858

Verfolge THOR ABLESTAR DEB in Echtzeit mit AllMySat

Download on the App Store